Location: Unspecified
(0.0000°N, 0.0000°E)
Time: 12:08:21
(UTC+00:00)

Envisat - Visible Passes

Search period start: 27 June 2017 00:00
Search period end: 07 July 2017 00:00
Orbit: 764 x 766 km, 98.2° (Epoch: 26 June)

Date Brightness Start Highest point End Pass type
(mag) Time Alt. Az. Time Alt. Az. Time Alt. Az.
27 Jun 4.7 19:49:50 19° NE 19:49:50 19° NE 19:51:44 10° NNE visible
28 Jun 5.2 20:52:53 21° NW 20:52:53 21° NW 20:54:37 10° NNW visible
29 Jun 4.5 20:15:43 27° NNE 20:15:43 27° NNE 20:18:03 10° N visible
30 Jun 4.9 19:38:34 16° NE 19:38:34 16° NE 19:40:05 10° NNE visible
30 Jun 5.9 21:18:46 12° NW 21:18:46 12° NW 21:19:18 10° NW visible
01 Jul 4.9 20:41:37 25° NNW 20:41:37 25° NNW 20:43:41 10° NNW visible
02 Jul 4.5 20:04:28 25° NNE 20:04:28 25° NNE 20:06:46 10° N visible
03 Jul 5.0 19:27:19 12° NE 19:27:19 12° NE 19:28:05 10° NE visible
03 Jul 5.6 21:07:31 16° NW 21:07:31 16° NW 21:08:42 10° NW visible
04 Jul 4.6 20:30:22 28° N 20:30:22 28° N 20:32:39 10° N visible
05 Jul 4.6 19:53:14 21° NE 19:53:14 21° NE 19:55:22 10° NNE visible
06 Jul 5.2 20:56:17 20° NW 20:56:17 20° NW 20:57:57 10° NNW visible
